Вернуться в каталог

COSMOS 2271

АктивенВоенныеPO
NORAD 23002·PAYLOAD·🇷🇺 Russia

Запущен Feb 12, 1994 с Plesetsk Cosmodrome

Loading…

Ближайшие Пролёты (ближайшие 24 часа)

TLE

СвежийSource: Space-Track

Эпоха: Sep 14, 2026, 07:54 UTC

1 23002U 94011D   26257.32976061 -.00000001  00000-0 -65460-4 0  9996
2 23002  82.5614 240.1280 0006965   0.6256 359.4843 12.63524681502749

Отслеживайте COSMOS 2271 в реальном времени с AllMySat

Download on the App Store